SCP
0 0 0 0 0 0 0 0 0 0 0 0 0 0 0 0 0 0 0 0 0 0 0 0 0 0 0 0 0 0 0 0 0 0 0 0 0 0 0 0 0 0 0
0 0 0 0 0 0 0 0 0 0 0 0 0 0 0 0 0 0 0 0 0 0 0 0 0 0 0 0 0 0 0 0 0 0 0 0 0 0 0 0 0 0 0
0 0 0 0 0 0 0 0 0 0 0 0 0 0 0 0 0 0 0 0 0 0 0 0 0 0 0 0 0 0 0 0 0 0 0 0 0 0 0 0 0 0 0
0 0 0 0 0 0 0 0 0 0 0 0 0 0 0 0 0 0 0 0 0 0 0 0 0 0 0 0 0 0 0 0 0 0 0 0 0 0 0 0 0 0 0
0 0 0 0 0 0 0 0 0 0 0 0 0 0 0 0 0 0 0 0 0 0 0 0 0 0 0 0 0 0 0 0 0 0 0 0 0 0 0 0 0 0 0
0 0 0 0 0 0 0 0 0 0 0 0 0 0 0 0 0 0 0 0 0 0 0 0 0 0 0 0 0 0 0 0 0 0 0 0 0 0 0 0 0 0 0
0 0 0 0 0 0 0 0 0 0 0 0 0 0 0 0 0 0 0 0 0 0 0 0 0 0 0 0 0 0 0 0 0 0 0 0 0 0 0 0 0 0 0
0 0 0 0 0 0 0 0 0 0 0 0 0 0 0 0 0 0 0 0 0 0 0 0 0 0 0 0 0 0 0 0 0 0 0 0 0 0 0 0 0 0 0
0 0 0 0 0 0 0 0 0 0 0 0 0 0 0 0 0 0 0 0 0 0 0 0 0 0 0 0 0 0 0 0 0 0 0 0 0 0 0 0 0 0 0
0 0 0 0 0 0 0 0 0 0 0 0 0 0 0 0 0 0 0 0 0 0 0 0 0 0 0 0 0 0 0 0 0 0 0 0 0 0 0 0 0 0 0
0 0 0 0 0 0 0 0 0 0 0 0 0 0 0 0 0 0 0 0 0 0 0 0 0 0 0 0 0 0 0 0 0 0 0 0 0 0 0 0 0 0 0
0 0 0 0 0 0 0 0 0 0 0 0 0 0 0 0 0 0 0 0 0 0 0 0 0 0 0 0 0 0 0 0 0 0 0 0 0 0 0 0 0 0 0
0 0 0 0 0 0 0 0 0 0 0 0 0 0 0 0 0 0 0 0 0 0 0 0 0 0 0 0 0 0 0 0 0 0 0 0 0 0 0 0 0 0 0
0 0 0 0 0 0 0 0 0 0 0 0 0 0 0 0 0 0 0 0 0 0 0 0 0 0 0 0 0 0 0 0 0 0 0 0 0 0 0 0 0 0 0
0 0 0 0 0 0 0 0 0 0 0 0 0 0 0 0 0 0 0 0 0 0 0 0 0 0 0 0 0 0 0 0 0 0 0 0 0 0 0 0 0 0 0
0 0 0 0 0 0 0 0 0 0 0 0 0 0 0 0 0 0 0 0 0 0 0 0 0 0 0 0 0 0 0 0 0 0 0 0 0 0 0 0 0 0 0
0 0 0 0 0 0 0 0 0 0 0 0 0 0 0 0 0 0 0 0 0 0 0 0 0 0 0 0 0 0 0 0 0 0 0 0 0 0 0 0 0 0 0
0 0 0 0 0 0 0 0 0 0 0 0 0 0 0 0 0 0 0 0 0 0 0 0 0 0 0 0 0 0 0 0 0 0 0 0 0 0 0 0 0 0 0
0 0 0 0 0 0 0 0 0 0 0 0 0 0 0 0 0 0 0 0 0 0 0 0 0 0 0 0 0 0 0 0 0 0 0 0 0 0 0 0 0 0 0
0 0 0 0 0 0 0 0 0 0 0 0 0 0 0 0 0 0 0 0 0 0 0 0 0 0 0 0 0 0 0 0 0 0 0 0 0 0 0 0 0 0 0
0 0 0 0 0 0 0 0 0 0 0 0 0 0 0 0 0 0 0 0 0 0 0 0 0 0 0 0 0 0 0 0 0 0 0 0 0 0 0 0 0 -0 0
0 0 0 0 0 0 0 0 0 0 0 0 0 0 0 0 0 0 0 0 0 0 0 0 0 0 0 0 0 0 0 0 0 0 0 0 0 0 0 0 0 -0 0
0 0 0 0 0 0 0 0 0 0 0 0 0 0 0 0 0 0 0 0 0 0 0 0 0 0 0 0 0 0 0 0 0 0 0 0 0 0 0 0 0 0 0
0 0 0 0 0 0 0 0 0 0 0 0 0 0 0 0 0 0 0 0 0 0 0 0 0 0 0 0 0 0 0 0 0 0 0 0 0 0 0 0 -0 -0 0
0 0 0 0 0 0 0 0 0 0 0 0 0 0 0 0 0 0 0 0 0 0 0 0 0 0 0 0 0 0 0 0 0 0 0 0 0 0 0 0 -0 0 0
0 0 0 0 0 0 0 0 0 0 0 0 0 0 0 0 0 0 0 0 0 0 0 0 0 0 0 0 0 0 0 0 0 -0 -0 0 0 0 0 0 0 0 0
Wind_Speed_500mb
43 44 43 35 27 40 30 25 27 33 35 35 42 47 42 37 41 39 24 16 7 14 19 13 18 24 24 27 29 30 29 24 26 25 21 23 19 19 18 16 14 15 15
42 41 36 36 29 37 28 29 32 36 40 40 48 46 44 44 41 32 26 17 10 8 12 18 19 21 22 24 27 25 23 23 20 21 19 17 17 14 14 10 11 9 12
39 44 43 33 36 34 30 31 38 40 39 44 47 57 48 40 34 29 27 22 10 23 20 19 19 18 19 20 18 20 20 18 18 18 16 14 11 9 9 7 4 4 8
39 43 47 44 42 30 34 41 46 43 43 45 45 56 47 47 42 35 26 24 14 21 16 23 22 16 16 12 18 14 16 15 14 14 13 12 10 7 4 1 3 7 12
43 42 40 36 28 33 41 45 48 48 46 49 52 53 56 51 43 39 31 26 17 22 25 29 30 25 19 13 13 14 13 13 12 10 8 6 4 1 2 7 9 12 16
49 52 44 43 38 41 44 49 47 46 47 52 53 44 41 45 46 42 37 30 23 24 31 30 36 34 33 26 16 14 12 10 9 8 6 4 4 4 6 8 13 17 21
49 47 39 35 38 45 48 52 51 48 53 51 50 44 48 44 44 40 36 32 29 33 35 35 39 41 35 27 29 19 13 11 8 9 10 10 8 8 11 15 17 22 25
46 43 42 41 47 47 50 57 57 60 58 60 54 53 30 33 42 43 40 37 35 39 41 41 42 42 40 35 31 27 20 16 14 13 13 13 14 13 15 18 23 28 31
49 48 45 51 47 45 50 52 60 61 65 66 58 34 21 19 32 44 44 43 47 47 45 43 43 42 41 37 35 32 29 28 26 25 25 25 23 23 22 25 28 33 37
53 55 49 47 44 44 52 55 62 67 65 65 64 63 40 21 18 19 45 55 53 50 47 46 45 43 41 39 38 36 33 32 33 33 36 35 36 36 35 34 35 39 42
53 55 53 51 54 56 56 56 61 67 67 68 67 68 66 50 32 25 14 33 55 52 50 48 46 44 42 40 39 37 36 36 39 41 41 41 42 44 46 47 46 45 48
54 56 56 56 56 54 56 57 58 61 68 71 69 68 70 64 55 39 29 19 28 46 51 50 47 45 43 42 40 38 39 41 44 44 45 46 47 50 54 57 59 52 50
57 58 56 61 55 60 54 57 59 60 64 67 66 64 62 59 53 43 34 23 17 33 42 53 52 48 46 43 43 42 43 43 44 45 48 51 53 56 61 65 64 56 54
44 50 55 58 57 55 55 58 57 57 60 62 62 63 62 61 54 46 40 32 25 25 32 36 51 51 48 45 46 43 45 45 46 48 51 55 58 64 68 69 68 62 55
40 42 48 52 54 53 53 56 58 60 59 57 58 57 56 56 54 47 42 37 34 22 26 34 34 45 49 47 46 45 45 45 46 51 56 60 65 68 70 71 72 72 60
41 40 43 47 50 52 53 56 58 57 57 57 55 53 52 51 52 50 45 42 40 37 22 33 39 36 39 42 41 44 44 45 51 55 60 64 67 70 71 74 76 76 82
42 41 41 46 50 51 53 56 56 56 55 55 54 52 49 47 45 44 43 41 40 38 39 34 36 34 34 38 40 41 44 50 55 60 61 64 68 71 74 79 82 89 95
43 40 41 44 47 49 51 54 55 54 54 53 53 50 46 43 42 38 36 35 34 35 35 33 32 32 34 36 38 42 48 53 56 59 60 68 73 77 78 84 92 95 94
43 41 41 43 44 47 50 52 51 51 51 50 48 45 41 39 39 36 35 33 32 31 29 28 28 31 32 34 40 45 49 53 55 60 67 77 77 77 85 93 92 90 88
41 40 39 41 43 44 46 47 48 47 46 45 43 42 38 38 38 36 36 34 31 29 26 25 25 27 30 37 41 45 50 56 64 67 76 76 79 90 91 91 88 82 83
37 38 38 40 41 41 42 45 45 44 44 43 41 38 37 39 36 34 32 31 28 25 24 23 23 27 33 36 41 47 58 66 72 73 77 81 92 91 86 82 83 80 75
35 36 38 39 39 40 39 39 39 42 43 44 44 43 41 38 34 32 30 29 25 21 21 22 24 27 32 38 44 53 62 68 72 69 85 95 88 87 82 83 84 78 77
32 35 37 38 36 36 37 38 39 40 40 40 40 43 42 37 33 32 35 29 23 19 21 21 22 26 35 42 51 57 61 67 72 77 81 94 83 84 86 90 86 79 76
29 32 35 34 34 36 38 41 40 39 40 41 40 38 34 30 26 24 19 15 17 17 17 21 25 32 40 47 53 58 63 68 73 70 69 89 83 95 100 102 92 83 92
31 33 33 35 38 41 40 37 39 41 42 41 37 33 30 29 29 27 20 17 16 18 22 27 34 40 43 48 52 54 57 62 70 69 69 71 88 103 111 99 90 108 103
31 35 38 40 41 43 38 36 38 43 47 46 42 37 33 31 28 21 16 16 16 18 24 31 35 39 42 46 49 50 53 55 59 68 60 81 77 86 88 79 101 127 132
Wind_Direction_500mb
230 212 200 198 209 243 249 236 194 176 171 182 185 179 180 188 177 168 166 169 161 141 126 124 144 130 135 140 130 126 122 123 110 104 102 98 96 97 89 83 81 76 61
226 206 193 193 196 241 247 218 197 179 179 186 184 185 180 178 172 168 139 142 139 156 123 131 142 138 136 142 132 124 131 115 117 119 121 118 121 115 107 112 82 53 45
221 207 191 188 183 224 240 223 206 185 179 189 190 183 173 179 175 164 161 153 186 154 152 155 147 153 144 135 136 121 118 123 120 117 117 117 121 129 138 111 110 64 11
221 210 204 199 192 198 224 220 203 189 188 180 174 177 180 175 174 174 177 171 222 192 196 185 185 177 160 138 135 140 130 129 127 133 150 158 170 166 167 167 4 357 352
217 214 212 200 178 214 225 215 206 197 193 199 196 188 182 178 181 179 187 188 202 223 228 222 202 192 178 172 167 158 145 137 139 138 170 182 189 229 356 351 350 344 337
210 203 195 206 189 209 213 209 209 197 201 197 176 178 192 192 188 187 186 193 207 241 236 230 219 208 180 185 174 180 166 176 185 195 201 222 266 305 325 331 326 320 316
226 210 194 196 203 211 208 204 205 203 198 196 207 204 204 190 197 202 207 211 218 235 236 236 225 220 219 219 191 190 180 202 218 238 253 258 274 311 321 318 313 310 313
215 210 197 199 211 208 209 206 204 202 203 205 200 194 202 213 214 219 221 225 234 246 240 235 231 225 221 229 225 212 199 209 242 251 259 263 275 300 305 308 309 308 308
211 212 208 204 199 211 216 211 207 209 206 201 204 200 188 216 220 231 234 235 245 247 241 234 229 225 231 234 235 240 246 252 256 261 264 269 280 291 301 304 304 305 304
219 214 211 205 211 212 223 217 214 210 214 215 210 216 226 219 201 241 245 239 237 236 233 229 228 230 234 238 239 245 250 257 261 265 268 276 284 290 294 300 305 306 305
227 228 220 216 206 217 220 218 216 216 216 220 223 219 224 233 228 233 248 244 231 229 229 229 231 233 236 239 242 247 252 257 263 268 273 279 283 287 290 296 302 305 304
229 226 221 219 212 221 221 220 221 220 219 224 226 231 233 234 233 236 238 251 237 233 230 232 232 235 237 240 244 250 256 261 267 272 276 281 285 289 293 296 298 303 303
226 224 221 217 222 223 222 223 223 223 224 227 229 231 233 235 240 235 234 246 242 243 233 233 234 236 239 242 246 251 258 262 265 272 280 285 289 293 296 297 299 301 300
231 225 222 222 228 226 224 224 226 227 228 229 232 232 235 237 237 234 245 251 249 251 238 236 235 236 240 242 248 253 258 262 267 276 283 289 294 296 298 299 299 300 302
225 225 225 228 230 227 226 227 228 226 226 228 230 232 235 235 237 240 244 249 247 241 236 239 235 235 238 243 249 254 259 267 273 281 287 293 295 297 297 299 299 300 302
222 225 225 226 228 228 225 227 227 226 226 227 229 231 235 238 239 245 251 252 248 242 234 244 236 240 239 244 250 255 264 274 280 286 292 295 296 297 299 301 301 298 299
221 225 225 225 226 225 223 223 225 226 227 229 229 230 234 238 240 245 250 249 243 238 240 243 239 241 241 247 253 263 274 281 287 292 295 297 297 300 301 301 300 301 302
222 222 222 224 225 224 224 223 223 224 224 227 230 229 231 237 243 243 241 237 234 231 233 238 239 238 243 251 263 274 282 286 291 295 299 299 300 301 301 302 304 305 305
219 220 220 221 223 222 222 221 221 223 224 224 228 230 232 235 239 235 232 228 227 229 234 241 241 244 252 264 274 283 289 293 298 302 303 302 304 304 306 308 307 308 308
215 217 217 219 220 219 218 219 218 217 218 218 221 225 228 229 229 228 224 224 227 233 238 244 250 260 272 281 289 294 296 301 304 307 306 306 308 311 312 310 310 312 313
210 211 212 213 214 213 214 214 213 213 213 214 216 218 220 221 217 216 219 221 225 234 245 255 269 278 285 294 299 304 307 309 309 312 311 309 312 313 314 312 315 320 315
206 207 207 207 208 206 205 207 210 210 210 212 213 213 209 207 208 213 218 224 230 243 259 272 279 286 294 300 306 309 312 314 317 317 312 311 316 316 315 313 318 320 312
203 203 201 199 198 197 195 197 199 206 209 207 205 202 198 199 205 214 228 239 247 256 266 277 287 298 303 307 309 311 314 313 311 318 316 312 318 314 315 314 318 318 313
197 196 192 189 185 185 189 193 194 194 195 194 196 197 199 196 201 215 227 246 262 274 287 297 304 307 308 310 313 315 315 315 315 321 320 310 317 316 318 318 323 323 320
186 180 180 178 177 179 189 190 189 186 185 183 183 184 191 196 211 223 237 260 276 291 301 307 311 312 314 314 316 317 318 320 321 323 324 315 320 321 322 322 324 323 316
173 169 166 169 177 183 180 184 189 187 180 177 176 182 191 208 222 236 246 266 283 296 305 310 312 314 315 316 319 321 323 324 324 327 328 321 317 327 319 317 313 321 321
Wind_Speed_850mb
43 44 43 35 27 40 30 25 27 33 35 35 42 47 42 37 41 39 24 16 7 14 19 13 18 24 24 27 29 30 29 24 26 25 21 23 19 19 18 16 14 15 15
42 41 36 36 29 37 28 29 32 36 40 40 48 46 44 44 41 32 26 17 10 8 12 18 19 21 22 24 27 25 23 23 20 21 19 17 17 14 14 10 11 9 12
39 44 43 33 36 34 30 31 38 40 39 44 47 57 48 40 34 29 27 22 10 23 20 19 19 18 19 20 18 20 20 18 18 18 16 14 11 9 9 7 4 4 8
39 43 47 44 42 30 34 41 46 43 43 45 45 56 47 47 42 35 26 24 14 21 16 23 22 16 16 12 18 14 16 15 14 14 13 12 10 7 4 1 3 7 12
43 42 40 36 28 33 41 45 48 48 46 49 52 53 56 51 43 39 31 26 17 22 25 29 30 25 19 13 13 14 13 13 12 10 8 6 4 1 2 7 9 12 16
49 52 44 43 38 41 44 49 47 46 47 52 53 44 41 45 46 42 37 30 23 24 31 30 36 34 33 26 16 14 12 10 9 8 6 4 4 4 6 8 13 17 21
49 47 39 35 38 45 48 52 51 48 53 51 50 44 48 44 44 40 36 32 29 33 35 35 39 41 35 27 29 19 13 11 8 9 10 10 8 8 11 15 17 22 25
46 43 42 41 47 47 50 57 57 60 58 60 54 53 30 33 42 43 40 37 35 39 41 41 42 42 40 35 31 27 20 16 14 13 13 13 14 13 15 18 23 28 31
49 48 45 51 47 45 50 52 60 61 65 66 58 34 21 19 32 44 44 43 47 47 45 43 43 42 41 37 35 32 29 28 26 25 25 25 23 23 22 25 28 33 37
53 55 49 47 44 44 52 55 62 67 65 65 64 63 40 21 18 19 45 55 53 50 47 46 45 43 41 39 38 36 33 32 33 33 36 35 36 36 35 34 35 39 42
53 55 53 51 54 56 56 56 61 67 67 68 67 68 66 50 32 25 14 33 55 52 50 48 46 44 42 40 39 37 36 36 39 41 41 41 42 44 46 47 46 45 48
54 56 56 56 56 54 56 57 58 61 68 71 69 68 70 64 55 39 29 19 28 46 51 50 47 45 43 42 40 38 39 41 44 44 45 46 47 50 54 57 59 52 50
57 58 56 61 55 60 54 57 59 60 64 67 66 64 62 59 53 43 34 23 17 33 42 53 52 48 46 43 43 42 43 43 44 45 48 51 53 56 61 65 64 56 54
44 50 55 58 57 55 55 58 57 57 60 62 62 63 62 61 54 46 40 32 25 25 32 36 51 51 48 45 46 43 45 45 46 48 51 55 58 64 68 69 68 62 55
40 42 48 52 54 53 53 56 58 60 59 57 58 57 56 56 54 47 42 37 34 22 26 34 34 45 49 47 46 45 45 45 46 51 56 60 65 68 70 71 72 72 60
41 40 43 47 50 52 53 56 58 57 57 57 55 53 52 51 52 50 45 42 40 37 22 33 39 36 39 42 41 44 44 45 51 55 60 64 67 70 71 74 76 76 82
42 41 41 46 50 51 53 56 56 56 55 55 54 52 49 47 45 44 43 41 40 38 39 34 36 34 34 38 40 41 44 50 55 60 61 64 68 71 74 79 82 89 95
43 40 41 44 47 49 51 54 55 54 54 53 53 50 46 43 42 38 36 35 34 35 35 33 32 32 34 36 38 42 48 53 56 59 60 68 73 77 78 84 92 95 94
43 41 41 43 44 47 50 52 51 51 51 50 48 45 41 39 39 36 35 33 32 31 29 28 28 31 32 34 40 45 49 53 55 60 67 77 77 77 85 93 92 90 88
41 40 39 41 43 44 46 47 48 47 46 45 43 42 38 38 38 36 36 34 31 29 26 25 25 27 30 37 41 45 50 56 64 67 76 76 79 90 91 91 88 82 83
37 38 38 40 41 41 42 45 45 44 44 43 41 38 37 39 36 34 32 31 28 25 24 23 23 27 33 36 41 47 58 66 72 73 77 81 92 91 86 82 83 80 75
35 36 38 39 39 40 39 39 39 42 43 44 44 43 41 38 34 32 30 29 25 21 21 22 24 27 32 38 44 53 62 68 72 69 85 95 88 87 82 83 84 78 77
32 35 37 38 36 36 37 38 39 40 40 40 40 43 42 37 33 32 35 29 23 19 21 21 22 26 35 42 51 57 61 67 72 77 81 94 83 84 86 90 86 79 76
29 32 35 34 34 36 38 41 40 39 40 41 40 38 34 30 26 24 19 15 17 17 17 21 25 32 40 47 53 58 63 68 73 70 69 89 83 95 100 102 92 83 92
31 33 33 35 38 41 40 37 39 41 42 41 37 33 30 29 29 27 20 17 16 18 22 27 34 40 43 48 52 54 57 62 70 69 69 71 88 103 111 99 90 108 103
31 35 38 40 41 43 38 36 38 43 47 46 42 37 33 31 28 21 16 16 16 18 24 31 35 39 42 46 49 50 53 55 59 68 60 81 77 86 88 79 101 127 132
Wind_Direction_850mb
230 212 200 198 209 243 249 236 194 176 171 182 185 179 180 188 177 168 166 169 161 141 126 124 144 130 135 140 130 126 122 123 110 104 102 98 96 97 89 83 81 76 61
226 206 193 193 196 241 247 218 197 179 179 186 184 185 180 178 172 168 139 142 139 156 123 131 142 138 136 142 132 124 131 115 117 119 121 118 121 115 107 112 82 53 45
221 207 191 188 183 224 240 223 206 185 179 189 190 183 173 179 175 164 161 153 186 154 152 155 147 153 144 135 136 121 118 123 120 117 117 117 121 129 138 111 110 64 11
221 210 204 199 192 198 224 220 203 189 188 180 174 177 180 175 174 174 177 171 222 192 196 185 185 177 160 138 135 140 130 129 127 133 150 158 170 166 167 167 4 357 352
217 214 212 200 178 214 225 215 206 197 193 199 196 188 182 178 181 179 187 188 202 223 228 222 202 192 178 172 167 158 145 137 139 138 170 182 189 229 356 351 350 344 337
210 203 195 206 189 209 213 209 209 197 201 197 176 178 192 192 188 187 186 193 207 241 236 230 219 208 180 185 174 180 166 176 185 195 201 222 266 305 325 331 326 320 316
226 210 194 196 203 211 208 204 205 203 198 196 207 204 204 190 197 202 207 211 218 235 236 236 225 220 219 219 191 190 180 202 218 238 253 258 274 311 321 318 313 310 313
215 210 197 199 211 208 209 206 204 202 203 205 200 194 202 213 214 219 221 225 234 246 240 235 231 225 221 229 225 212 199 209 242 251 259 263 275 300 305 308 309 308 308
211 212 208 204 199 211 216 211 207 209 206 201 204 200 188 216 220 231 234 235 245 247 241 234 229 225 231 234 235 240 246 252 256 261 264 269 280 291 301 304 304 305 304
219 214 211 205 211 212 223 217 214 210 214 215 210 216 226 219 201 241 245 239 237 236 233 229 228 230 234 238 239 245 250 257 261 265 268 276 284 290 294 300 305 306 305
227 228 220 216 206 217 220 218 216 216 216 220 223 219 224 233 228 233 248 244 231 229 229 229 231 233 236 239 242 247 252 257 263 268 273 279 283 287 290 296 302 305 304
229 226 221 219 212 221 221 220 221 220 219 224 226 231 233 234 233 236 238 251 237 233 230 232 232 235 237 240 244 250 256 261 267 272 276 281 285 289 293 296 298 303 303
226 224 221 217 222 223 222 223 223 223 224 227 229 231 233 235 240 235 234 246 242 243 233 233 234 236 239 242 246 251 258 262 265 272 280 285 289 293 296 297 299 301 300
231 225 222 222 228 226 224 224 226 227 228 229 232 232 235 237 237 234 245 251 249 251 238 236 235 236 240 242 248 253 258 262 267 276 283 289 294 296 298 299 299 300 302
225 225 225 228 230 227 226 227 228 226 226 228 230 232 235 235 237 240 244 249 247 241 236 239 235 235 238 243 249 254 259 267 273 281 287 293 295 297 297 299 299 300 302
222 225 225 226 228 228 225 227 227 226 226 227 229 231 235 238 239 245 251 252 248 242 234 244 236 240 239 244 250 255 264 274 280 286 292 295 296 297 299 301 301 298 299
221 225 225 225 226 225 223 223 225 226 227 229 229 230 234 238 240 245 250 249 243 238 240 243 239 241 241 247 253 263 274 281 287 292 295 297 297 300 301 301 300 301 302
222 222 222 224 225 224 224 223 223 224 224 227 230 229 231 237 243 243 241 237 234 231 233 238 239 238 243 251 263 274 282 286 291 295 299 299 300 301 301 302 304 305 305
219 220 220 221 223 222 222 221 221 223 224 224 228 230 232 235 239 235 232 228 227 229 234 241 241 244 252 264 274 283 289 293 298 302 303 302 304 304 306 308 307 308 308
215 217 217 219 220 219 218 219 218 217 218 218 221 225 228 229 229 228 224 224 227 233 238 244 250 260 272 281 289 294 296 301 304 307 306 306 308 311 312 310 310 312 313
210 211 212 213 214 213 214 214 213 213 213 214 216 218 220 221 217 216 219 221 225 234 245 255 269 278 285 294 299 304 307 309 309 312 311 309 312 313 314 312 315 320 315
206 207 207 207 208 206 205 207 210 210 210 212 213 213 209 207 208 213 218 224 230 243 259 272 279 286 294 300 306 309 312 314 317 317 312 311 316 316 315 313 318 320 312
203 203 201 199 198 197 195 197 199 206 209 207 205 202 198 199 205 214 228 239 247 256 266 277 287 298 303 307 309 311 314 313 311 318 316 312 318 314 315 314 318 318 313
197 196 192 189 185 185 189 193 194 194 195 194 196 197 199 196 201 215 227 246 262 274 287 297 304 307 308 310 313 315 315 315 315 321 320 310 317 316 318 318 323 323 320
186 180 180 178 177 179 189 190 189 186 185 183 183 184 191 196 211 223 237 260 276 291 301 307 311 312 314 314 316 317 318 320 321 323 324 315 320 321 322 322 324 323 316
173 169 166 169 177 183 180 184 189 187 180 177 176 182 191 208 222 236 246 266 283 296 305 310 312 314 315 316 319 321 323 324 324 327 328 321 317 327 319 317 313 321 321